Regional Weather Roundup
Issued by NWS

Home | Current Version | Previous Version | Graphics & Text | Print | Product List | Glossary On
Versions: 1 2 3 4 5 6 7 8 9 10 11 12 13 14 15 16 17 18 19 20 21 22 23 24 25 26 27 28 29 30 31 32 33 34 35 36 37 38 39 40 41 42 43 44 45 46 47 48 49 50
000
ASUS43 KFSD 231310
RWRSD

WEATHER ROUNDUP FOR SOUTH DAKOTA
NATIONAL WEATHER SERVICE SIOUX FALLS SD
800 AM CDT SUN APR 23 2017

NOTE: "FAIR" INDICATES FEW OR NO CLOUDS BELOW 12,000 FEET WITH NO
SIGNIFICANT WEATHER AND/OR OBSTRUCTIONS TO VISIBILITY.


SDZ001>005-009-010-012>017-231400-
NORTHWEST AND NORTH CENTRAL SOUTH DAKOTA

CITY           SKY/WX    TMP DP  RH WIND       PRES   REMARKS
BUFFALO          N/A     37  32  82 NE21      29.80F
FAITH            N/A     38  38 100 NE13      29.87F
MOBRIDGE       CLOUDY    37  32  82 E21G30    29.96F
$$

SDZ012>016-024>037-041>051-057-063-072>074-231400-
SOUTHWEST AND SOUTH CENTRAL SOUTH DAKOTA

CITY           SKY/WX    TMP DP  RH WIND       PRES   REMARKS
RAPID CTY ARPT CLOUDY    46  35  65 SE9       29.84F
PIERRE         MOSUNNY   45  34  65 E7        29.94S
CUSTER         CLOUDY    36  28  73 NW3       29.90F
ELLSWORTH AFB  CLOUDY    47  35  62 S13       29.82F HAZE
PHILIP         CLOUDY    48  35  60 VRB3      29.89F
PINE RIDGE     MOSUNNY   47  34  60 S20G26    29.92F
SPEARFISH      FAIR      54  30  40 SW15      29.82F
WINNER         FAIR      49  32  52 SW18G25   29.99F
$$

SDZ004>011-016>023-039-040-231400-
NORTHEAST SOUTH DAKOTA

CITY           SKY/WX    TMP DP  RH WIND       PRES   REMARKS
ABERDEEN       CLOUDY    37  33  85 NE14      30.05F
WATERTOWN      SUNNY     39  36  89 E7        30.04F
BROOKINGS      SUNNY     48  35  60 S7        30.07R
SISSETON         N/A     40  38  93 NE7       30.09R
$$

SDZ017-020-022-023-036>040-048>070-231400-
SOUTHEAST SOUTH DAKOTA

CITY           SKY/WX    TMP DP  RH WIND       PRES   REMARKS
SIOUX FALLS    MOSUNNY   51  35  54 SW9       30.08S
HURON          CLOUDY    47  37  68 S7        30.02F
MITCHELL       SUNNY     51  35  54 S12       30.05R
YANKTON        SUNNY     52  32  46 S7        30.09S
$$

ABBREVIATIONS USED IN REMARKS
   TC - TEMPERATURE IN CELSIUS
  WCI - WIND CHILL INDEX
   HX - HEAT INDEX
  VSB - VISIBILITY




USA.gov is the U.S. government's official web portal to all federal, state and local government web resources and services.